Miscellaneous Local Product
Issued by NWS North Platte, NE

Home | Current Version | Previous Version | Text Only | Print | Product List | Glossary On
Versions: 1 2 3 4 5 6 7 8 9 10 11 12 13 14 15 16 17 18 19 20 21 22 23 24 25 26 27 28 29 30 31 32 33 34 35 36 37 38 39 40 41 42 43 44 45 46 47 48 49 50
620
AXUS43 KLBF 222010
MISLBF


WESTERN AND NORTH CENTRAL NEBRASKA HOURLY WEATHER ROUNDUP
NATIONAL WEATHER SERVICE NORTH PLATTE NE
300 PM CDT MON AUG 22 2016

NOTE: "FAIR" INDICATES FEW OR NO CLOUDS BELOW 12,000 FEET WITH NO
SIGNIFICANT WEATHER AND/OR OBSTRUCTIONS TO VISIBILITY.

NOTE: STATIONS NOT REPORTING VARIABLES SUCH AS SKY/WEATHER OR
PRESSURE ARE PROVIDED BY RAWS AND APRS NETWORKS AND ARE NOT UNDER
NATIONAL WEATHER SERVICE QUALITY CONTROL.

...OBSERVATIONS IN AND NEAR THE EASTERN PANHANDLE OF NEBRASKA...

CITY           SKY/WX    TMP DP  RH WIND       PRES   REMARKS
PINE RIDGE     SUNNY     97  48  18 W10G18    29.74F HX  93
CHADRON        SUNNY     99  32   9 SW8G17    29.73F HX  93
ALLIANCE       CLOUDY    94  51  23 S14G23    29.83F HX  91
SIDNEY         CLOUDY    88  49  25 S13       29.90F
CRESCENT LAKE    N/A     90  51  26 S9G20       N/A
$$

...OBSERVATIONS IN NORTHERN NEBRASKA AND FAR SOUTHERN SOUTH DAKOTA...

CITY           SKY/WX    TMP DP  RH WIND       PRES   REMARKS
WINNER         FAIR      93  63  36 S22G28    29.72F HX  94
VALENTINE      SUNNY     92  55  28 S24G35    29.77F HX  90
THEDFORD       CLOUDY    91  58  32 S23G30    29.85S HX  90
AINSWORTH      SUNNY     90  60  36 S21       29.81F
O`NEILL        SUNNY     89  56  32 S26G35    29.83F
ORD            CLOUDY    87  60  40 S22G30    29.86F
BROKEN BOW     SUNNY     88  60  38 S25G38    29.87F
VALENTINE NWR    N/A     91  58  32 S17G25      N/A
BUTTE            N/A     87  63  44 S20G36      N/A
HALSEY           N/A     88  56  33 S14G24      N/A
EWING            N/A     88  65  46 S14G25      N/A  HX  90
$$

...OBSERVATIONS IN SOUTHWEST NEBRASKA AND FAR NORTHEAST COLORADO...

CITY           SKY/WX    TMP DP  RH WIND       PRES   REMARKS
WRAY           FAIR      88  50  27 S15G26    29.90F
HOLYOKE        FAIR      84  52  32 S15G23    29.89S
IMPERIAL       MOSUNNY   87  54  32 S21G31    29.88F
OGALLALA       CLOUDY    92  47  21 S16G25    29.86S
NORTH PLATTE   CLOUDY    94  57  28 S16G23    29.85F HX  92
MCCOOK         MOSUNNY   91  56  30 S22G33    29.88F
LEXINGTON      SUNNY     89  58  34 S23       29.89S
STAPLETON        N/A     90  60  36 S3G13       N/A
$$

...OBSERVATIONS IN CENTRAL LINCOLN COUNTY AREA...

CITY           SKY/WX    TMP DP  RH WIND       PRES   REMARKS
N.P. AIRPORT   CLOUDY    94  57  28 S16G23    29.85F HX  92
N.P. DOWNTOWN    N/A     92  59  32 S9G20       N/A  HX  91
N.P. SOUTHEAST   N/A     92  58  31 S13G28      N/A  HX  91
N.P. HILLCREST   N/A     92  56  29 SW16G26     N/A  HX  90
$$

...SOME OBSERVATIONS FROM AROUND THE REGION...

CITY           SKY/WX    TMP DP  RH WIND       PRES   REMARKS
DENVER         CLOUDY    91  33  12 N10       29.94F
LARAMIE        CLOUDY    80  24  12 NW10G20   30.08F
CHEYENNE       CLOUDY    85  26  11 NE5       29.99F
SCOTTSBLUFF    SUNNY     92  46  20 CALM      29.84F
RAPID CITY     SUNNY    100  35  10 W13       29.67S HX  94
BISMARCK       SUNNY     85  65  51 SE8       29.63F
PIERRE         SUNNY     97  61  30 S23G30    29.62F HX  97
SIOUX FALLS    MOSUNNY   87  64  46 S23G37    29.83F
OMAHA          MOSUNNY   84  60  44 S25G31    29.98F
GRAND ISLAND   SUNNY     87  60  40 S23G30    29.93F
KANSAS CITY    MOSUNNY   82  57  42 S14G21    30.08F
WICHITA        MOSUNNY   84  59  42 SE9       30.05F
OKLAHOMA CITY  MOSUNNY   86  61  42 S13G23    30.06F
DALLAS         PTSUNNY   88  71  57 CALM      30.03F HX  94
AMARILLO       MOSUNNY   84  59  42 S18       30.09F
DODGE CITY     SUNNY     86  55  34 S21G35    30.00F
HAYS           MOSUNNY   88  57  35 S24       29.97F
GOODLAND       CLOUDY    83  56  39 S24G36    29.93F
$$




USA.gov is the U.S. government's official web portal to all federal, state and local government web resources and services.